Weather in Vagharshapat

Armenia     40°09′47″N   44°17′36″E
temp.,
°C
wind,
m/s
gust,
m/s
humid.,
%
clouds,
%
prec.,
mm/h
press.,
hPa
HPBL,
m
27 november, sat
sat2701:00+3n119043 0.0 102525
04:00+2nnw008813 0.0 102415
07:00+3nne2282100 0.0 102411
10:00+7n016319 0.0 1024103
13:00+10ssw115480 0.0 1023914
16:00+10ssw114946 0.0 1021856
19:00+7n225913 0.0 102210
22:00+7nne2256100 0.0 102211
28 november, sun
sun2801:00+6nne2258100 0.0 102211
04:00+5nne1161100 0.0 102110
07:00+5nne116298 0.0 102010
10:00+9e114762 0.0 1020116
13:00+11s11405 0.0 1018648
16:00+12s113958 0.0 1017785
19:00+9n225219 0.0 101811
22:00+8nne226018 0.0 101811
29 november, mon
mon2901:00+7n22677 0.0 101911
04:00+6n226939 0.0 102011
07:00+5nnw1172100 0.0 102111
10:00+10ne015596 0.0 102277
13:00+13sw22462 0.0 1021806
16:00+13ssw22440 0.0 1020829
19:00+9ne22575 0.0 102110
22:00+8nne22595 0.0 102211
30 november, tue
tue3001:00+7nne116574 0.0 102110
04:00+7nne1167100 0.0 102111
07:00+6n11692 0.0 102010
10:00+11ene114999 0.0 101964
13:00+14sse123898 0.0 1016576
16:00+15e123699 0.0 1013538
19:00+11nne114494 0.0 101011
22:00+10n22520 0.0 100911
1 december, wed
wed101:00+11nnw33430 0.0 100817
04:00+9nw23531 0.0 100729
07:00+9wnw34506 0.0 100759
10:00+12wnw24428 0.1 1007337
13:00+15wsw473211 0.1 10051389
16:00+16sse152710 0.3 10021060
19:00+12wnw8113911 0.1 1002220
22:00+12nw6946100 0.1 1002281